Location: Assevillers
(49.8975°N, 2.8362°E)
Time: 11:47:24
(UTC+00:00)

Daily predictions for brighter satellites

Satellite Brightness Start Highest point End
(mag) Time Altitude Azimuth Time Altitude Azimuth Time Altitude Azimuth
Cosmos 2344 4.4 20:26:38 10° NW 20:35:03 67° NE 20:46:38 10° ESE
SPOT 1/Viking Rocket 4.0 20:36:44 10° S 20:41:49 61° WSW 20:46:58 10° NNW
Cosmos 2154 Rocket 4.4 20:37:26 10° N 20:43:30 51° ENE 20:49:31 10° SSE
COSMOS 2406 4.2 20:39:03 10° SSE 20:43:48 27° ESE 20:48:33 10° NE
X-37B 1.5 20:41:52 10° WSW 20:44:19 27° S 20:46:45 10° SE
Spot 2 Rocket 3.8 20:39:38 10° SSE 20:44:37 57° ENE 20:49:38 10° N
Cosmos 1025 Rocket 4.2 20:41:24 10° SSW 20:45:32 47° WNW 20:49:43 10° N
SPOT 5 2.7 20:50:15 10° SSE 20:54:33 64° ENE 20:58:51 10° N
Cosmos 2084 Rocket 3.5 20:52:05 10° NW 20:55:56 65° NE 20:59:58 10° SE
Cosmos 1703 3.3 20:52:52 10° S 20:56:39 62° E 21:00:29 10° NNE
RESURS DK-1 2.7 20:52:51 10° NW 20:56:57 62° WSW 21:01:02 10° SSE
Cosmos 1452 Rocket 3.5 20:54:13 10° SSW 20:59:28 82° ESE 21:04:45 10° NNE
Cosmos 1833 Rocket 2.8 20:54:13 10° S 20:59:40 56° ESE 21:05:10 10° NE
Terra 2.2 20:56:39 10° SE 21:01:16 53° ENE 21:05:55 10° N
CZ-4B R/B 2.3 20:58:41 10° N 21:01:27 43° WNW 21:04:13 10° SW
FALCON 9 DEB 3.7 21:02:06 10° WNW 21:05:19 54° N 21:08:32 10° E
Helios 1A Rocket 2.9 21:01:16 10° SSE 21:05:19 75° ENE 21:09:27 10° NNW
Cosmos 1110 Rocket 4.1 21:00:18 10° S 21:05:28 62° ESE 21:10:44 10° NNE
Cosmos 2322 Rocket 4.3 21:03:33 10° N 21:07:30 19° NE 21:11:27 10° E
ERS-1 Rocket 3.0 21:02:47 10° SSE 21:07:48 76° ENE 21:12:51 10° NNW
Resurs 01 Rocket 3.5 21:04:40 10° SSW 21:08:29 28° W 21:12:20 10° NW
Cosmos 2228 3.0 21:06:38 10° N 21:10:53 89° ENE 21:15:08 10° S
Cosmos 2058 Rocket 4.2 21:07:48 10° N 21:11:44 30° ENE 21:15:19 12° SE
Cosmos 2184 Rocket 4.2 21:08:37 10° NNW 21:14:48 76° W 21:21:00 10° S
Cosmos 1825 4.4 21:15:30 10° ESE 21:16:51 12° E 21:18:12 10° ENE
Lacrosse 5 4.1 21:14:15 10° W 21:17:10 15° WSW 21:20:04 10° SSW
Cosmos 1408 3.9 21:16:14 13° SE 21:18:18 22° E 21:21:00 10° NE
Cosmos 2278 4.5 21:13:38 10° NNW 21:19:06 44° NE 21:24:23 11° ESE
Cosmos 968 Rocket 3.7 21:16:55 10° NNW 21:22:06 63° ENE 21:26:36 14° SE
Cosmos 1328 3.9 21:22:05 11° S 21:25:56 57° E 21:29:52 10° NNE
USA 276 2.0 21:24:16 10° W 21:27:18 86° N 21:30:21 10° E
H-2A R/B 4.5 21:26:43 10° N 21:30:21 25° WNW 21:34:01 10° WSW
SJ 16-02 3.7 21:28:29 10° NNE 21:31:04 15° NE 21:33:38 10° E
Cosmos 1867 3.7 21:26:20 10° NW 21:31:50 77° NE 21:36:30 14° SE
Cosmos 2082 Rocket 2.6 21:28:08 10° S 21:33:31 45° ESE 21:38:55 10° NE
USA 267 4.0 21:31:22 10° ENE 21:36:54 29° SE 21:42:26 10° S
ARIANE 5 R/B 2.6 21:35:43 15° SSE 21:39:25 88° ENE 21:43:52 10° NNW
Cosmos 1606 Rocket 3.7 21:35:17 10° NNW 21:39:36 72° W 21:43:23 13° S
GP-B 3.8 21:36:24 10° NNE 21:40:36 40° E 21:43:35 17° SSE
Cosmos 2341 Rocket 4.2 21:35:36 10° N 21:41:54 65° ENE 21:47:01 16° SSE
Cosmos 2360 Rocket 4.2 21:39:21 10° N 21:43:39 21° NE 21:47:55 10° E
Meteor 1-21 Rocket 4.4 21:38:36 10° SSW 21:44:12 77° WNW 21:49:58 10° N
Cosmos 192 4.3 21:43:48 10° SSW 21:48:40 73° ESE 21:53:34 10° NNE
Okean 1-7 Rocket 4.3 21:58:41 20° SSE 22:01:14 39° E 22:05:26 10° NNE
SAR-Lupe-1 4.3 21:58:08 10° NNE 22:01:40 53° ESE 22:03:39 23° S
Cosmos 1726 Rocket 4.1 21:58:04 10° NNW 22:02:17 54° W 22:05:41 15° SSW
Cosmos 1892 2.7 22:02:06 21° S 22:04:27 65° E 22:08:12 10° NNE
Cosmos 2181 Rocket 4.1 22:07:21 18° S 22:12:00 63° E 22:18:11 10° NNE
USA 234 3.5 22:06:24 10° ESE 22:12:55 70° NNE 22:19:27 10° WNW
Cosmos 1633 4.0 22:12:09 19° ESE 22:13:11 22° E 22:15:55 10° NE
Cosmos 1697 Rocket 4.1 22:12:13 10° NW 22:16:55 28° WSW 22:21:16 11° SSW
Cosmos 1980 Rocket 2.7 22:11:29 10° NW 22:17:00 52° WSW 22:20:52 19° S
SL-16 R/B 2.7 22:11:31 10° NNW 22:17:06 54° NE 22:21:23 17° SE
Cosmos 1486 Rocket 4.0 22:12:25 10° NNW 22:17:41 81° ENE 22:21:05 22° SSE
Cosmos 1992 Rocket 4.2 22:15:19 19° S 22:18:52 54° ESE 22:23:59 10° NNE
X-37B 2.9 22:18:02 10° SW 22:18:13 11° SW 22:18:13 11° SW
Cosmos 1812 Rocket 4.3 22:15:23 10° N 22:19:39 42° ENE 22:22:08 22° SE
Cosmos 2369 4.5 22:15:09 10° NW 22:20:34 44° WSW 22:24:30 18° S
Cosmos 1932 4.5 22:14:27 10° SSW 22:20:35 63° ESE 22:26:51 10° NE
Cosmos 2219 Rocket 4.4 22:16:36 10° N 22:20:40 20° NE 22:24:43 10° E
TIMED 4.5 22:21:54 14° SSW 22:25:36 86° WNW 22:29:59 10° NNE
COSMOS 2406 3.8 22:22:02 10° SW 22:27:44 60° NW 22:33:27 10° NNE
Cosmos-2242 3.8 22:24:59 10° N 22:29:00 40° ENE 22:31:12 23° SE
ATLAS 5 CENTAUR R/B 1.4 22:29:23 24° SSW 22:31:22 52° SE 22:35:27 10° NE
Cosmos 1869 3.2 22:29:19 10° N 22:33:13 85° W 22:35:09 29° S
Cosmos 807 4.3 22:30:29 10° N 22:33:33 59° ENE 22:34:25 38° SE
Cosmos 1602 Rocket 3.9 22:32:11 27° SSE 22:34:11 47° E 22:38:21 10° NNE
In-Cosmos 22 Rocket 4.1 22:30:23 18° S 22:34:33 90° ESE 22:40:01 10° NNE
ERS-2 4.3 22:35:20 10° ENE 22:37:04 13° E 22:37:40 13° ESE
Meteor 1-27 4.3 22:33:28 10° NNW 22:39:01 73° W 22:42:35 23° S
Terra 3.7 22:35:39 10° SW 22:39:20 22° W 22:43:02 10° NW
FALCON 9 DEB 3.2 22:38:25 10° WNW 22:41:36 49° SSW 22:42:17 41° S
ASTEX 1 3.9 22:37:04 10° N 22:41:59 58° WNW 22:45:50 16° SSW
ALOS 2 3.2 22:39:48 24° SE 22:42:12 49° ENE 22:46:27 10° N
Cosmos 1833 Rocket 4.5 22:38:55 10° WSW 22:43:54 32° NW 22:48:57 10° NNE
Cosmos 1354 Rocket 4.1 22:40:35 10° NNW 22:45:55 71° ENE 22:49:06 24° SE
BREEZE-M DEB (TANK) 3.5 22:44:49 10° W 22:47:53 80° S 22:59:08 10° ESE
SL-8 Rocket 4.5 22:42:32 10° NNW 22:48:35 53° W 22:53:01 18° SSW
Cosmos 2058 Rocket 4.4 22:45:47 10° NNW 22:49:42 32° W 22:52:35 16° SW
ADEOS Rocket 3.7 22:45:43 21° SSE 22:51:01 70° ENE 22:58:45 10° NNW
Cosmos 1825 2.4 22:49:40 25° SSW 22:51:39 64° WNW 22:55:23 10° N
Cosmos 2322 Rocket 2.4 22:46:56 10° NNW 22:52:38 69° ENE 22:56:24 22° SE
Cosmos 1408 4.3 22:50:12 12° SW 22:52:52 27° WNW 22:55:51 10° NNW
Cosmos 1503 Rocket 4.0 22:50:22 10° NNW 22:55:42 82° WSW 22:58:35 27° SSE
Cosmos 1626 Rocket 3.7 22:54:43 24° SSW 22:57:15 69° WNW 23:01:38 10° N
USA 276 2.3 23:00:03 10° W 23:02:50 47° SSW 23:02:50 47° SSW
Cosmos 1777 Rocket 4.2 22:58:26 10° NNW 23:03:44 67° ENE 23:06:53 24° SE
Cosmos 2333 Rocket 3.2 23:02:18 10° NNW 23:07:47 42° NE 23:12:52 12° ESE
Cosmos 1825 Rocket 4.0 23:08:17 31° SSE 23:09:58 48° E 23:14:10 10° NNE
SJ 16-02 1.3 23:05:51 10° NNW 23:10:19 90° ENE 23:12:19 32° SSE
Gbstr 26 Del rocket 4.0 23:11:09 29° SE 23:11:20 29° SE 23:15:37 10° E
Cosmos 1340 Rocket 3.8 23:13:04 27° SE 23:14:13 33° E 23:17:48 10° NNE
Meteor 2-20 4.4 23:13:52 24° S 23:17:42 88° W 23:23:50 10° N
Cosmos 2082 Rocket 3.5 23:12:24 10° WSW 23:17:43 39° NW 23:23:02 10° NNE
H-2A R/B 3.4 23:14:54 10° NNE 23:19:08 80° ESE 23:20:55 34° S
USA 267 3.2 23:13:58 10° ENE 23:20:33 81° SSE 23:27:07 10° SW
Cosmos 2221 3.4 23:22:00 10° N 23:26:09 41° ENE 23:28:18 24° SE
Cosmos 1606 2.8 23:23:06 10° NNW 23:26:57 69° W 23:28:16 39° SSW
Cosmos 2058 3.0 23:26:08 36° S 23:27:43 68° E 23:31:54 10° NNE
Cosmos 2360 Rocket 2.2 23:22:49 10° NNW 23:28:33 83° ENE 23:31:59 25° SSE
Cosmos 1934 Rocket 4.0 23:23:22 10° N 23:29:29 73° E 23:33:06 26° SSE
Meteor 2-2 Rocket 4.4 23:35:11 10° NNW 23:41:14 83° W 23:44:36 28° S
Cosmos 44 3.7 23:41:21 32° SSE 23:42:35 39° ESE 23:46:45 10° NE
Cosmos 2237 4.5 23:38:33 10° NW 23:44:09 54° WSW 23:46:53 29° S
Meteor 2-20 Rocket 4.5 23:42:26 25° SSW 23:46:09 76° WNW 23:52:17 10° N
Cosmos 1633 4.1 23:45:55 19° WSW 23:47:33 27° WNW 23:50:33 10° NNW
Cosmos 1758 Rocket 4.4 23:45:44 22° SW 23:48:06 42° WNW 23:52:19 10° N
Cosmos 2237 Rocket 4.3 23:48:10 10° NNW 23:52:42 24° NE 23:57:12 10° E
Cosmos 1339 Rocket 4.5 23:50:04 28° S 23:53:33 75° E 23:59:41 10° NNE
